Temp
20 20 20 21 20 20 21 21 20 20 21 21 20 20 20 20 20 20 20 20 20 20 20 20 20 20 20 20 20 19 19 19 19 19 19 19 19 19 19 19 19 19
20 20 20 20 20 20 21 21 21 21 21 21 21 21 20 20 20 20 20 20 20 20 20 20 20 20 20 20 20 19 19 19 19 19 19 19 19 19 19 19 19 19
20 20 20 20 20 20 21 21 21 21 21 21 21 21 21 20 20 20 20 20 20 20 20 20 20 20 20 20 20 20 19 19 19 19 19 19 19 19 19 19 19 19
20 20 20 20 20 20 21 21 21 21 21 21 21 21 21 21 20 20 20 20 20 20 20 20 20 20 20 20 20 20 19 19 19 19 19 19 19 19 19 19 19 19
20 20 20 20 20 20 20 21 21 21 21 21 21 21 21 21 20 20 20 20 20 20 20 20 20 20 20 20 20 20 19 19 19 19 19 19 19 19 19 19 18 19
20 20 20 20 20 20 20 20 21 21 21 21 21 21 21 21 20 20 20 20 20 20 20 20 20 20 20 20 20 19 19 19 19 19 19 19 19 19 19 18 18 18
20 20 20 20 20 20 20 21 21 21 21 21 21 21 21 21 20 20 20 20 20 20 20 20 20 20 20 20 20 19 19 19 19 19 19 19 19 19 18 18 18 18
20 20 20 20 20 20 20 20 21 21 21 21 21 21 21 21 21 20 20 20 20 20 20 20 20 20 20 20 19 19 19 19 19 19 19 18 18 18 18 18 18 18
20 20 20 20 20 20 20 20 21 21 21 21 21 21 21 21 21 21 20 20 20 20 20 20 20 20 20 20 19 19 19 19 19 19 19 18 18 18 18 18 18 17
20 20 20 20 20 20 20 20 21 21 21 21 21 21 21 21 21 21 20 20 20 20 20 20 20 20 19 19 19 19 19 19 19 19 19 18 18 18 18 18 18 17
18 20 20 20 20 20 20 20 21 21 21 21 21 21 21 21 21 21 20 20 20 20 20 20 20 20 19 19 19 19 19 19 19 19 18 18 18 18 18 18 18 18
17 18 19 20 20 20 20 20 21 21 21 21 21 21 21 21 21 21 20 20 20 20 20 20 20 20 19 19 19 19 19 19 19 18 18 18 18 18 18 18 18 18
18 17 18 20 21 20 20 20 21 21 21 21 21 21 21 21 21 21 20 20 20 20 20 20 20 20 19 19 19 19 19 19 19 18 18 18 18 18 18 18 18 18
17 17 18 19 20 21 21 21 21 21 21 21 21 21 21 21 21 21 20 20 20 20 20 20 20 19 19 19 19 19 19 19 18 18 18 18 18 18 18 18 18 18
18 17 17 19 20 21 21 21 21 21 21 21 21 21 21 21 21 21 20 20 20 20 20 20 20 20 20 20 19 19 19 19 18 18 18 18 18 18 18 18 18 18
20 18 17 18 19 20 21 21 21 21 21 21 21 21 21 21 21 21 20 20 20 20 20 20 19 20 20 20 20 19 19 19 18 18 18 18 18 18 18 18 18 18
20 18 17 17 19 20 21 21 21 21 21 21 21 21 21 21 21 21 20 20 20 20 20 20 20 20 20 20 20 20 19 19 18 18 18 18 18 18 18 17 17 18
18 18 18 18 20 20 21 21 21 21 21 21 21 21 21 21 21 21 21 20 20 20 20 20 20 20 20 20 20 20 20 19 19 18 18 18 18 18 18 17 17 17
20 19 19 19 20 20 20 20 20 20 21 21 21 21 21 21 21 21 21 21 20 20 20 20 20 20 20 20 20 20 20 19 19 18 18 18 18 18 18 18 17 17
21 21 20 20 20 20 20 20 20 20 20 21 21 21 21 21 21 21 21 21 20 20 20 20 20 20 20 20 20 20 20 20 19 19 18 18 18 18 18 18 18 17
22 21 21 21 20 20 20 20 20 20 20 21 21 21 21 21 21 21 21 21 20 20 20 20 20 20 20 20 20 20 20 20 19 19 18 18 18 18 18 18 18 17
21 21 21 21 21 21 20 20 20 20 20 20 19 20 21 21 21 21 21 21 21 20 20 20 20 20 20 20 20 20 20 19 19 19 18 18 18 18 18 18 18 18
22 21 21 21 21 21 21 21 21 21 21 20 18 18 18 19 20 21 21 21 20 20 20 20 20 20 20 20 20 20 20 19 19 19 19 18 18 18 18 18 18 18
23 22 21 21 21 21 21 21 21 21 21 21 19 18 18 17 18 19 20 21 21 20 20 20 20 20 20 20 20 20 20 19 19 18 18 18 18 18 17 18 18 18
22 22 21 21 21 21 21 21 21 21 21 21 19 19 19 18 17 17 17 19 20 20 20 20 20 20 20 20 20 20 20 19 19 18 18 18 18 17 17 17 17 17
21 21 21 21 21 21 21 22 21 21 21 20 19 19 19 19 19 18 17 17 18 18 20 20 20 20 20 20 20 20 20 19 19 18 18 18 18 17 17 17 16 16
Height
751 752 754 756 758 760 762 765 767 769 770 772 775 775 777 779 783 786 788 790 792 794 795 798 800 802 804 805 807 808 808 809 810 811 812 813 814 816 817 818 819 820
746 748 750 752 754 757 759 761 763 764 766 767 769 771 774 777 779 782 784 786 788 790 792 794 796 798 800 801 803 804 805 806 807 808 809 810 812 813 814 816 817 818
741 743 746 748 750 753 754 756 759 760 762 764 765 768 771 773 776 778 781 783 784 786 788 790 792 794 796 798 800 801 802 803 804 805 807 807 809 810 811 813 815 816
737 739 741 744 747 749 751 752 754 757 759 761 762 764 766 769 772 775 777 779 781 782 784 786 789 791 793 794 796 797 799 800 801 803 804 804 806 807 808 810 812 813
732 734 737 740 743 746 748 749 750 752 754 756 758 760 762 765 768 771 773 775 777 779 780 782 785 787 789 791 792 794 795 797 798 800 801 801 803 804 805 807 809 810
727 729 732 735 738 742 744 745 746 747 749 752 754 756 757 760 764 767 769 771 773 775 776 778 780 783 785 787 789 790 791 793 795 797 797 798 799 801 802 804 805 806
721 724 728 731 734 736 739 741 742 744 746 749 751 752 753 755 759 762 765 768 770 772 773 774 776 778 780 783 784 785 787 789 791 793 794 795 796 798 799 800 801 803
716 719 722 726 729 731 733 736 739 740 742 745 747 748 749 751 753 757 761 764 767 768 769 770 772 773 776 778 780 781 783 785 787 789 790 791 793 794 795 796 798 799
715 716 719 721 724 726 729 731 735 737 740 742 743 744 745 746 749 752 756 760 763 765 766 768 769 770 772 773 775 776 778 780 782 784 786 787 788 789 791 793 795 796
718 716 717 719 720 722 725 728 731 734 737 738 739 740 741 743 745 748 752 755 758 761 763 764 765 765 767 769 770 772 774 776 778 780 781 783 784 786 788 789 791 792
720 719 717 716 718 719 721 724 728 730 733 734 736 737 738 740 742 745 748 751 753 755 757 759 760 762 763 765 766 769 771 772 774 775 777 779 780 782 784 786 787 788
717 720 719 716 716 717 719 721 724 726 728 730 731 733 734 736 738 740 743 745 747 750 752 754 756 758 759 760 763 765 767 769 770 771 773 775 776 778 780 782 783 785
714 718 720 717 714 714 716 718 720 722 724 725 726 728 730 732 734 736 738 740 743 745 748 750 753 755 756 757 759 761 763 764 766 767 769 771 772 774 776 778 780 782
713 715 718 716 712 710 712 714 716 718 720 721 722 724 726 728 729 731 733 735 738 740 743 746 749 752 753 754 755 756 758 759 761 763 765 767 769 771 773 775 776 778
711 715 717 714 710 708 709 710 712 714 715 717 718 719 721 723 725 728 730 731 733 735 738 741 744 746 748 749 750 751 753 755 757 759 761 762 765 767 770 771 773 775
706 712 714 712 707 704 705 706 708 710 711 713 714 715 717 719 721 724 726 728 729 730 732 735 737 739 741 742 744 746 749 751 753 755 756 758 761 764 766 767 769 771
700 705 709 707 702 700 701 703 704 706 707 709 710 711 712 715 717 720 721 723 724 726 727 729 730 732 734 737 740 742 744 747 749 751 753 755 757 759 761 763 766 767
698 700 701 700 696 695 697 699 700 702 703 704 706 707 708 710 713 714 716 718 720 721 722 723 723 724 727 731 735 737 740 743 745 747 749 751 752 754 757 760 762 764
694 695 695 694 692 693 694 695 696 698 699 700 701 702 704 706 708 709 710 712 715 716 717 717 717 718 721 725 728 732 735 738 741 743 745 747 748 751 754 757 759 761
689 690 691 691 690 691 692 692 693 694 694 695 697 698 700 701 702 704 705 707 708 710 712 713 712 712 715 719 722 726 730 734 737 740 741 743 745 747 749 752 755 757
685 686 687 687 688 689 690 691 691 692 692 692 692 693 694 695 696 697 698 700 702 704 706 707 707 707 709 713 716 720 725 730 733 736 737 739 741 742 744 747 750 753
680 682 683 684 684 685 686 687 688 689 690 692 692 692 691 690 690 691 692 693 695 698 700 702 702 703 704 707 711 715 721 726 729 732 733 735 736 738 740 743 746 749
676 677 678 680 681 681 681 682 682 683 684 687 690 693 693 690 688 686 686 688 690 692 693 696 698 699 700 702 706 711 716 721 725 728 729 730 732 734 736 739 741 744
671 672 673 675 676 676 677 677 678 678 678 679 681 685 689 692 691 688 685 683 684 686 688 691 693 695 697 699 702 706 711 715 720 723 725 726 728 730 732 734 736 739
667 668 669 670 671 672 672 673 673 673 674 675 675 676 679 683 687 690 689 685 683 682 684 687 689 691 694 696 699 702 706 711 715 719 721 722 724 726 728 730 732 734
664 664 665 666 667 668 668 669 669 670 670 670 671 671 672 674 676 680 684 686 686 685 683 683 685 688 690 692 695 698 702 707 712 715 717 718 720 722 724 726 728 730
Wind_Speed
45 43 43 43 43 41 41 40 39 39 40 41 42 43 44 44 43 44 45 44 43 43 42 40 40 40 39 38 38 37 37 37 37 37 36 36 36 35 35 36 35 34
46 44 42 42 42 41 40 40 41 41 41 43 44 43 41 41 42 43 44 44 43 43 42 41 40 40 40 39 39 38 38 38 38 37 37 37 37 36 36 36 36 35
47 44 43 42 42 42 42 42 42 41 41 42 43 42 41 40 41 43 44 43 43 42 42 42 41 40 40 40 39 39 39 38 38 38 37 37 37 37 37 37 36 36
46 44 43 43 43 43 44 43 42 41 40 40 41 42 41 40 40 42 43 43 43 42 42 42 42 41 41 40 40 40 39 39 39 38 37 37 38 38 37 36 36 36
47 45 44 44 43 43 42 40 41 41 40 41 42 41 41 40 40 41 42 43 43 42 41 41 41 42 41 40 40 40 40 39 39 38 38 38 38 38 37 36 36 36
46 45 45 44 43 42 41 40 42 42 42 41 40 40 41 40 40 41 42 43 43 43 42 41 41 41 41 41 40 40 40 40 39 39 39 38 38 38 37 36 36 36
45 45 44 44 44 43 42 42 42 42 43 42 40 39 40 40 40 41 42 43 42 42 42 42 42 41 41 41 41 40 39 39 39 39 39 38 37 37 37 37 37 37
44 44 45 44 43 43 43 42 42 42 42 41 40 39 39 40 41 42 41 41 42 42 42 42 42 42 41 41 42 41 40 39 39 39 40 38 37 37 38 37 37 37
42 41 42 43 42 42 42 42 41 41 41 41 41 41 40 40 41 41 41 41 41 41 42 41 42 42 42 43 43 42 41 40 40 40 40 39 38 38 38 37 36 37
35 38 39 40 41 41 41 40 39 39 40 40 41 40 39 40 40 40 39 39 40 41 41 42 43 43 43 43 43 42 41 41 40 41 41 41 40 40 39 38 38 38
31 34 36 38 39 40 40 40 40 40 40 40 40 39 38 39 38 38 39 39 40 42 42 43 44 43 43 43 43 42 41 41 41 41 41 41 41 41 40 39 39 39
32 32 33 36 38 38 39 40 40 41 41 41 40 39 38 38 38 39 40 40 42 43 43 43 43 43 42 42 43 42 41 41 41 41 41 41 41 41 41 41 40 40
33 36 37 38 39 39 39 39 40 41 42 41 40 39 38 38 39 39 40 42 43 42 42 42 42 41 41 41 41 42 42 41 41 41 41 41 41 41 41 41 41 40
31 37 42 41 41 41 40 40 41 42 42 41 38 37 38 39 40 40 41 42 42 42 42 42 40 40 40 41 42 42 42 42 42 41 40 40 40 40 40 41 41 40
31 37 42 42 41 40 39 40 41 40 40 39 38 38 39 40 40 40 41 41 42 42 42 40 40 41 42 43 43 42 42 42 41 40 40 39 39 39 39 41 41 40
35 38 40 39 37 37 37 38 38 38 38 38 38 39 40 39 39 39 40 40 41 42 41 40 40 42 45 46 45 44 43 41 40 40 40 39 38 37 38 40 40 41
36 40 41 38 35 34 35 35 36 36 36 37 38 40 40 40 39 39 40 41 42 42 41 41 42 44 47 48 47 46 44 41 40 39 39 39 38 38 38 39 39 40
33 38 38 36 33 33 34 35 35 35 35 36 37 39 39 39 39 40 41 42 42 42 42 42 44 46 48 48 48 48 47 44 41 39 38 38 39 39 38 38 38 39
28 32 32 31 31 33 34 34 34 34 35 36 37 39 39 39 39 41 42 42 42 41 42 44 45 47 48 48 49 49 49 46 42 39 38 38 38 39 38 38 38 38
18 25 29 31 32 32 32 33 33 35 37 37 37 37 37 38 40 41 41 42 43 43 43 44 46 47 47 48 49 49 49 49 45 40 38 38 39 39 39 39 39 39
10 15 22 28 31 31 29 30 31 33 35 36 37 38 39 40 41 42 43 44 44 43 43 44 46 47 47 47 49 49 49 49 46 41 38 39 39 40 41 41 41 40
10 12 15 20 26 29 29 29 29 29 29 29 31 34 38 41 42 42 43 44 44 44 43 44 46 47 47 47 48 48 47 48 46 42 39 38 39 40 41 42 42 41
15 15 15 17 21 25 28 31 32 33 34 33 31 31 32 35 39 42 43 43 43 44 44 43 44 45 46 47 47 46 46 46 45 42 40 39 39 39 41 42 42 42
18 18 17 19 21 24 27 30 32 35 38 39 37 35 35 35 35 36 39 43 44 45 44 44 44 45 45 46 46 45 45 46 44 41 39 38 38 38 40 42 43 43
18 19 19 20 23 25 26 29 31 33 35 38 39 39 39 39 36 33 34 37 40 43 44 44 43 42 42 43 44 45 45 45 43 40 38 38 37 36 37 39 41 42
19 20 21 22 24 27 28 30 31 31 32 35 38 38 38 40 39 36 34 35 36 38 41 43 43 41 40 41 43 43 45 45 42 39 38 38 36 35 35 35 37 39
Wind_Direction
210 209 208 208 210 211 210 209 209 207 206 205 206 206 206 206 207 208 210 212 214 215 216 217 218 219 219 219 220 221 221 223 224 225 225 225 226 227 227 228 229 230
211 210 209 210 211 212 211 209 209 208 207 207 208 208 207 207 207 208 210 212 214 216 217 217 218 219 219 219 219 220 221 222 223 224 224 225 226 226 227 229 230 231
211 210 209 211 212 212 212 211 211 211 210 210 209 208 208 208 208 209 211 213 214 215 216 218 219 219 219 219 218 219 220 222 222 222 222 224 226 227 228 230 231 231
210 211 210 211 213 213 213 211 211 212 213 212 211 209 209 210 210 211 212 214 215 215 215 217 218 219 219 218 218 219 221 222 223 222 221 222 225 226 228 229 229 230
210 210 211 212 213 215 214 212 211 211 213 214 213 210 209 210 211 212 213 214 215 215 215 216 217 218 219 219 218 219 220 221 222 222 221 221 223 225 226 227 227 228
210 210 211 212 213 214 215 214 213 212 213 214 213 211 210 210 211 213 213 214 215 214 214 215 216 217 217 218 218 219 219 220 221 221 221 220 221 223 224 225 226 227
208 209 211 212 212 214 215 216 215 214 214 215 214 212 210 209 211 213 214 214 214 214 214 214 215 215 216 216 217 218 219 219 219 219 220 220 220 222 223 223 225 226
208 209 209 210 212 213 214 216 216 215 215 215 214 213 211 210 211 213 214 214 215 215 215 214 214 215 215 215 216 218 218 218 218 218 218 219 219 221 222 222 223 225
211 210 209 210 211 213 214 215 216 217 216 216 215 214 213 213 213 213 214 214 215 216 217 216 215 215 215 215 216 217 217 217 217 217 218 218 218 220 222 221 222 223
221 214 211 211 211 212 215 215 215 217 217 218 217 215 214 215 215 215 215 215 215 216 217 217 216 215 215 216 217 218 218 217 217 217 218 219 220 221 222 221 221 222
235 224 214 212 213 213 214 215 216 217 218 219 219 217 216 216 215 215 215 215 216 217 217 217 217 216 215 216 217 218 219 219 218 218 219 220 221 222 222 222 222 222
232 234 225 216 214 215 215 215 216 217 218 219 218 218 218 217 216 216 216 217 218 219 218 218 218 217 216 217 218 218 219 220 220 220 220 220 221 222 222 223 223 223
229 232 232 223 216 216 217 217 217 218 219 219 218 218 218 217 218 217 218 219 220 220 220 220 219 218 218 218 218 218 219 220 221 220 220 221 222 222 222 223 224 224
240 237 235 229 220 217 217 217 218 219 220 220 219 218 218 219 219 218 218 219 220 221 221 220 219 219 219 219 219 219 219 220 221 220 220 220 221 222 222 223 224 224
250 246 240 232 222 218 217 217 219 220 220 220 219 219 220 220 220 220 219 219 219 220 220 220 219 219 221 221 220 219 219 220 220 220 219 219 220 221 222 223 223 223
243 245 244 235 224 219 219 219 220 221 221 220 220 220 221 221 221 221 220 219 220 219 219 218 218 220 222 223 222 220 219 220 220 220 219 218 218 219 221 222 223 223
231 236 239 235 226 221 222 222 222 222 221 221 221 221 222 221 221 220 220 221 221 220 219 218 218 221 223 224 224 222 220 220 220 220 219 217 217 217 219 221 222 222
228 229 233 233 228 226 226 225 224 223 222 221 221 221 222 221 220 220 221 222 222 222 221 220 221 223 224 224 225 224 222 221 220 220 218 217 217 217 218 220 221 221
235 236 239 240 237 234 232 229 227 225 224 223 222 222 221 220 221 221 222 222 222 223 223 222 223 224 224 224 225 225 224 222 220 220 219 217 217 216 218 220 221 220
240 243 245 246 244 242 239 235 231 229 227 225 224 223 221 220 220 221 222 222 222 223 224 224 225 225 225 225 226 226 224 222 220 220 220 219 218 217 217 219 221 220
241 247 248 247 246 244 243 242 239 236 233 230 226 223 222 222 221 220 220 221 222 222 223 225 226 226 225 225 226 227 225 222 220 220 220 220 219 218 217 218 221 221
254 257 257 254 248 242 240 240 240 241 242 242 240 234 227 223 222 221 221 221 221 221 222 225 227 227 225 226 227 226 225 221 218 218 220 220 219 218 217 217 219 220
265 265 265 262 255 247 243 242 240 240 242 243 246 250 247 237 227 222 221 221 221 220 220 223 227 228 226 226 227 226 223 219 216 217 219 220 220 218 216 216 218 219
269 273 273 267 261 256 254 251 248 246 244 239 235 240 249 252 248 237 227 223 221 221 221 222 226 228 227 227 227 225 222 217 215 215 218 220 219 218 216 216 217 218
274 278 278 272 266 262 260 258 254 252 250 244 237 234 236 242 250 252 246 236 228 223 222 222 225 228 228 227 227 226 222 217 213 213 216 219 218 217 216 216 216 217
279 279 276 272 268 264 262 260 256 254 251 246 242 239 237 237 239 241 246 250 246 235 226 223 224 226 228 228 227 226 223 217 212 212 216 218 217 215 214 214 214 215